�������r�C�����j�^�v���󋵏��
Date,Time,5�C6���@���p�r�C��,����,����(m/s)
2022/02/24,00:00,4.1,���k��,7.9
2022/02/24,00:10,4.1,���k��,6.0
2022/02/24,00:20,4.1,���k��,5.2
2022/02/24,00:30,4.0,���k��,5.2
2022/02/24,00:40,4.0,���k��,4.5
2022/02/24,00:50,4.0,���k��,3.5
2022/02/24,01:00,4.1,���k��,4.7
2022/02/24,01:10,4.1,���k��,4.3
2022/02/24,01:20,4.2,�k��,4.0
2022/02/24,01:30,4.1,���k��,3.0
2022/02/24,01:40,4.2,���k��,3.0
2022/02/24,01:50,4.1,���k��,4.5
2022/02/24,02:00,4.2,�k��,3.9
2022/02/24,02:10,4.2,���k��,2.9
2022/02/24,02:20,4.1,��,2.3
2022/02/24,02:30,4.2,�k��,1.8
2022/02/24,02:40,4.2,�k�k��,3.0
2022/02/24,02:50,4.2,�k�k��,3.1
2022/02/24,03:00,4.0,�k,3.3
2022/02/24,03:10,4.1,�k,3.4
2022/02/24,03:20,4.1,�k�k��,3.3
2022/02/24,03:30,4.3,�k�k��,3.0
2022/02/24,03:40,4.2,�k�k��,3.0
2022/02/24,03:50,4.0,�k��,3.7
2022/02/24,04:00,4.0,�k�k��,2.6
2022/02/24,04:10,4.1,�k�k��,2.5
2022/02/24,04:20,4.2,�k�k��,2.8
2022/02/24,04:30,4.2,�k�k��,2.6
2022/02/24,04:40,4.0,�k�k��,2.5
2022/02/24,04:50,4.0,�k�k��,2.0
2022/02/24,05:00,4.2,�k�k��,1.5
2022/02/24,05:10,4.0,�k,0.9
2022/02/24,05:20,4.2,�k,2.0
2022/02/24,05:30,4.1,�k�k��,1.4
2022/02/24,05:40,4.0,-,CALM
2022/02/24,05:50,4.1,�k��,1.4
2022/02/24,06:00,4.0,�k��,1.1
2022/02/24,06:10,4.1,���k��,1.9
2022/02/24,06:20,4.0,�k�k��,1.5
2022/02/24,06:30,4.1,�k��,1.2
2022/02/24,06:40,4.1,���쐼,0.6
2022/02/24,06:50,4.1,��쐼,1.5
2022/02/24,07:00,4.0,��,1.5
2022/02/24,07:10,4.1,���k��,0.9
2022/02/24,07:20,4.2,���k��,0.8
2022/02/24,07:30,4.0,�k��,0.8
2022/02/24,07:40,4.1,�k�k��,2.6
2022/02/24,07:50,4.1,�k��,3.7
2022/02/24,08:00,4.1,�k��,5.5
2022/02/24,08:10,3.9,�k��,3.2
2022/02/24,08:20,4.0,���k��,3.1
2022/02/24,08:30,4.3,���k��,5.6
2022/02/24,08:40,4.1,��,4.8
2022/02/24,08:50,4.1,���k��,7.2
2022/02/24,09:00,4.0,���k��,8.6
2022/02/24,09:10,4.2,���k��,6.2
2022/02/24,09:20,4.2,��,8.6
2022/02/24,09:30,4.1,��,8.5
2022/02/24,09:40,4.0,���쐼,6.3
2022/02/24,09:50,4.0,��,6.3
2022/02/24,10:00,4.1,���k��,5.1
2022/02/24,10:10,4.1,��,5.5
2022/02/24,10:20,4.0,��,5.1
2022/02/24,10:30,4.2,�k,4.7
2022/02/24,10:40,4.2,�k,2.5
2022/02/24,10:50,4.1,�k��,2.5
2022/02/24,11:00,4.2,�k�k��,2.0
2022/02/24,11:10,4.2,�k�k��,3.3
2022/02/24,11:20,4.2,�k��,2.3
2022/02/24,11:30,4.3,���k��,2.3
2022/02/24,11:40,4.1,�k,1.4
2022/02/24,11:50,4.1,���k��,4.2
2022/02/24,12:00,4.2,��,5.5
2022/02/24,12:10,4.1,���k��,4.3
2022/02/24,12:20,4.3,���쐼,6.8
2022/02/24,12:30,4.1,��,7.4
2022/02/24,12:40,4.1,���k��,6.6
2022/02/24,12:50,4.1,��,7.9
2022/02/24,13:00,4.2,���k��,7.3
2022/02/24,13:10,4.2,���쐼,4.5
2022/02/24,13:20,4.2,���쐼,6.2
2022/02/24,13:30,4.2,���k��,6.7
2022/02/24,13:40,4.1,��,4.4
2022/02/24,13:50,4.2,���k��,4.4
2022/02/24,14:00,4.1,��,6.4
2022/02/24,14:10,4.0,���k��,6.7
2022/02/24,14:20,4.1,�k��,5.7
2022/02/24,14:30,4.0,�k��,4.6
2022/02/24,14:40,4.1,���k��,5.9
2022/02/24,14:50,4.3,���k��,6.3
2022/02/24,15:00,4.1,���k��,6.4
2022/02/24,15:10,4.1,��,6.6
2022/02/24,15:20,4.2,���k��,7.5
2022/02/24,15:30,4.3,��,4.9
2022/02/24,15:40,4.2,��,6.1
2022/02/24,15:50,4.3,��,5.7
2022/02/24,16:00,4.0,���쐼,4.5
2022/02/24,16:10,4.3,��,8.0
2022/02/24,16:20,4.1,��,7.0
2022/02/24,16:30,4.1,��,7.2
2022/02/24,16:40,4.0,��,6.9
2022/02/24,16:50,4.1,��,6.0
2022/02/24,17:00,4.2,��,7.7
2022/02/24,17:10,4.2,��,7.3
2022/02/24,17:20,4.2,��,7.1
2022/02/24,17:30,3.8,��,6.7
2022/02/24,17:40,4.2,��,6.1
2022/02/24,17:50,4.2,��,6.3
2022/02/24,18:00,4.1,��,6.0
2022/02/24,18:10,4.2,��,6.1
2022/02/24,18:20,4.1,���쐼,5.7
2022/02/24,18:30,4.1,���쐼,5.5
2022/02/24,18:40,4.2,���쐼,5.1
2022/02/24,18:50,4.1,���쐼,3.5
2022/02/24,19:00,4.1,���쐼,3.4
2022/02/24,19:10,4.0,���쐼,2.3
2022/02/24,19:20,4.1,�쐼,2.3
2022/02/24,19:30,4.1,��,2.3
2022/02/24,19:40,4.0,�쐼,1.1
2022/02/24,19:50,4.0,�k��,3.2
2022/02/24,20:00,4.0,���k��,5.7
2022/02/24,20:10,4.1,���k��,4.5
2022/02/24,20:20,4.2,�k�k��,2.8
2022/02/24,20:30,4.0,�k,2.3
2022/02/24,20:40,4.1,�k,3.1
2022/02/24,20:50,4.0,�k,3.6
2022/02/24,21:00,4.1,�k�k��,4.7
2022/02/24,21:10,4.1,�k��,3.4
2022/02/24,21:20,4.1,�k��,3.5
2022/02/24,21:30,4.1,�k��,2.2
2022/02/24,21:40,4.2,�k��,1.5
2022/02/24,21:50,4.1,�k��,2.6
2022/02/24,22:00,4.2,�k��,3.3
2022/02/24,22:10,4.1,�k��,3.5
2022/02/24,22:20,4.0,�k��,3.9
2022/02/24,22:30,4.2,�k��,4.1
2022/02/24,22:40,4.1,�k��,4.2
2022/02/24,22:50,4.1,�k��,4.4
2022/02/24,23:00,4.1,���k��,3.4
2022/02/24,23:10,4.0,�k��,2.8
2022/02/24,23:20,4.1,�k��,2.3
2022/02/24,23:30,4.2,�k��,2.0
2022/02/24,23:40,4.0,�k��,1.5
2022/02/24,23:50,4.2,�k�k��,2.0
